Meath Environmental Platform

Observations for Trim Market St

Time AQI Temp °C Hum % Pres Pa CO μg/m³ H₂S μg/m³ NO μg/m³ NO₂ μg/m³ O₃ μg/m³ SO₂ μg/m³ PM1 μg/m³ PM2.5 μg/m³ PM10 μg/m³
Wednesday 15 July 2026
03:19 1 17.6 73 48,596 0.13 0 0 6.7 22.3 0 9.26 12.06 17.26
03:18 1 17.6 73 49,054 0.14 0 0 7.21 25.5 0 7.13 11.1 17.88
03:17 1 17.6 73 49,391 0.13 0 0 6.72 23.61 0 7.13 11.59 17.89
03:16 1 17.6 73 49,799 0.13 0 0 6.52 22.49 0 7.84 12.07 17.28
03:15 1 17.6 73 50,117 0.13 0 0 6.83 23.07 0 7.13 12.08 17.29
03:14 1 17.6 73 50,459 0.14 0 0 5.75 21.87 0 4.99 9.2 13.03
03:10 1 17.6 72 51,419 0.14 0 0 6.67 21.87 0 9.26 11.62 19.16
03:09 1 17.6 72 51,610 0.13 0 0 5.38 21.58 0 7.13 10.18 15.49
03:05 1 17.7 72 52,059 0.13 0 0 6.28 23.12 0 6.41 10.68 16.12
03:03 1 17.7 72 52,401 0.14 0 0 6 21.83 0 5.7 9.72 14.91
03:01 1 17.7 72 52,746 0.13 0 0 6.01 22.38 0 7.13 11.18 16.15
02:56 1 17.7 72 53,365 0.12 0 0 5.24 24.45 0 7.13 10.72 14.94
02:50 1 17.8 71 53,737 0.13 0 0 5.94 23.57 0 8.55 11.22 15.57
02:49 1 17.7 71 53,803 0.13 0 0 5.98 24.3 0 7.13 10.74 15.58
02:48 1 17.8 71 53,860 0.13 0 0 5.25 23.55 0 7.13 11.22 16.82
02:47 1 17.8 71 53,890 0.13 0 0 5.16 24.23 0 6.41 10.26 15.59
02:46 1 17.8 71 53,954 0.12 0 0 7.06 24.38 0 6.41 10.26 15.59
02:45 1 17.8 71 54,025 0.12 0 0 6.17 24.09 0 7.13 11.72 17.45
02:44 1 17.8 71 54,088 0.13 0 0 6.67 23.32 0 7.13 10.75 16.83
02:43 1 17.8 71 54,175 0.12 0 0 5.98 24.8 0 7.84 10.76 14.98